Weather History for Deadhorse, AK

Change the Weather History Date:

Monday, March 10, 2014

  Actual Average Record
Temperature  
Mean Temperature -36 °F -  
Max Temperature -25 °F -6 °F 33 °F (1989)
Min Temperature -41 °F -18 °F -49 °F (1999)
Degree Days  
Heating Degree Days 102    
Moisture  
Dew Point -    
Average Humidity    
Maximum Humidity    
Minimum Humidity    
Precipitation  
Precipitation 0.00 in - - ()
Sea Level Pressure  
Sea Level Pressure 29.92 in    
Wind  
Wind Speed 5 mph (WSW)    
Max Wind Speed 9 mph    
Max Gust Speed -    
Visibility 9 miles    
Events      
Averages and records for this station are not official NWS values.
T = Trace of Precipitation, MM = Missing Value Source: NWS Daily Summary

Daily Weather History Graph

Daily Weather History Graph

Search for Another Location

Airport:

Trip Planner

Search our weather history database for the weather conditions in past years. The results will help you decide how hot, cold, wet, or windy it might be!

Date:

Astronomy

Mar. 10, 2014 Rise Set
Actual Time 8:38 AM AKDT 7:31 PM AKDT
Civil Twilight 7:37 AM AKDT 8:33 PM AKDT
Nautical Twilight 6:24 AM AKDT 9:46 PM AKDT
Astronomical Twilight 5:00 AM AKDT 11:12 PM AKDT
Moon 11:37 AM AKDT (3/10) 7:46 AM AKDT (3/10)
Length of Visible Light 12h 55m
Length of Day
10h 53m
Waxing Gibbous, 71% of the Moon is Illuminated
Mar 10
Waxing Gibbous
Mar 16
Full
Mar 23
Last Quarter
Mar 30
New
Apr 7
First Quarter

Hourly Weather History & Observations

Time (AKDT) Temp. Windchill Dew Point Humidity Pressure Visibility Wind Dir Wind Speed Gust Speed Precip Events Conditions
12:53 AM -38.0 °F -56.7 °F - N/A% 29.99 in 10.0 mi SW 5.8 mph - N/A   Scattered Clouds
1:53 AM -38.9 °F -57.8 °F - N/A% 29.98 in 10.0 mi SW 5.8 mph - N/A   Clear
2:53 AM -38.9 °F -63.2 °F - N/A% 29.98 in 10.0 mi SW 9.2 mph - N/A   Clear
3:53 AM -38.9 °F -61.6 °F - N/A% 29.98 in 10.0 mi WSW 8.1 mph - N/A   Clear
4:53 AM -40.0 °F -61.1 °F - N/A% 29.98 in 10.0 mi SW 6.9 mph - N/A   Partly Cloudy
5:53 AM -38.9 °F -61.6 °F - N/A% 29.97 in 10.0 mi WSW 8.1 mph - N/A   Partly Cloudy
6:53 AM -40.0 °F -64.5 °F - N/A% 29.96 in 10.0 mi SW 9.2 mph - N/A   Clear
7:53 AM -41.1 °F -64.2 °F - N/A% 29.96 in 10.0 mi WSW 8.1 mph - N/A   Clear
8:53 AM -41.1 °F -64.2 °F - N/A% 29.96 in 10.0 mi SW 8.1 mph - N/A   Clear
9:53 AM -38.9 °F -63.2 °F - N/A% 29.96 in 10.0 mi WSW 9.2 mph - N/A   Clear
10:53 AM -38.9 °F -59.8 °F - N/A% 29.96 in 10.0 mi WSW 6.9 mph - N/A   Scattered Clouds
11:53 AM -36.9 °F -55.4 °F - N/A% 29.96 in 10.0 mi WSW 5.8 mph - N/A   Partly Cloudy
12:53 PM -36.0 °F -52.0 °F - N/A% 29.96 in 10.0 mi WSW 4.6 mph - N/A   Partly Cloudy
1:53 PM -35.0 °F -50.7 °F - N/A% 29.95 in 10.0 mi WSW 4.6 mph - N/A   Partly Cloudy
2:53 PM -34.1 °F -49.7 °F - N/A% 29.95 in 10.0 mi WSW 4.6 mph - N/A   Partly Cloudy
3:53 PM -34.1 °F -49.7 °F - N/A% 29.95 in 10.0 mi SW 4.6 mph - N/A   Clear
4:22 PM -34.6 °F - - N/A% 29.93 in 10.0 mi Calm Calm - N/A   Mostly Cloudy
4:53 PM -33.0 °F - - N/A% 29.93 in 10.0 mi Calm Calm - N/A   Mostly Cloudy
5:00 PM -32.8 °F - - N/A% 29.91 in 10.0 mi Calm Calm - N/A   Mostly Cloudy
5:07 PM -32.8 °F - - N/A% 29.91 in 3.0 mi Calm Calm - N/A   Mostly Cloudy
5:14 PM -32.8 °F - - N/A% 29.91 in 3.0 mi Calm Calm - N/A   Mostly Cloudy
5:53 PM -34.1 °F - - N/A% 29.91 in 6.0 mi Calm Calm - N/A   Mostly Cloudy
6:53 PM -33.0 °F -48.4 °F - N/A% 29.88 in 10.0 mi North 4.6 mph - N/A   Mostly Cloudy
7:00 PM -32.8 °F -45.3 °F - N/A% 29.86 in 10.0 mi North 3.5 mph - N/A   Scattered Clouds
7:53 PM -35.0 °F - - N/A% 29.87 in 6.0 mi Calm Calm - N/A   Partly Cloudy
8:53 PM -35.0 °F - - N/A% 29.84 in 7.0 mi Calm Calm - N/A   Clear
9:53 PM -38.0 °F - - N/A% 29.82 in 10.0 mi Calm Calm - N/A   Clear
10:53 PM -38.0 °F -51.3 °F - N/A% 29.80 in 10.0 mi NW 3.5 mph - N/A   Clear
11:11 PM -38.2 °F -54.5 °F - N/A% 29.77 in 7.0 mi NNW 4.6 mph - N/A   Scattered Clouds
11:53 PM -36.9 °F -57.4 °F - N/A% 29.77 in 10.0 mi North 6.9 mph - N/A   Partly Cloudy